User: anonymous   Login
Location: Standeford and Andreas Observatories
(44.1397°N, 93.9969°W)
Time: 07:33:29
(UTC-05:00)
Language:

Cosmos 1500 Rocket - Orbit

View from above orbital plane
View from above orbital plane
View from above satellite
View from above satellite

Ground track
Ground track

The orbit data is extracted from the following two-line orbital elements,

1 14373U 83099B   15183.15889471  .00000151  00000-0  15334-4 0  9995
2 14373 082.5397 193.6027 0021883 070.9952 333.8837 14.83468469714714
Epoch (UTC): 02 July 2015 03:48:48
Eccentricity: 0.0021883
inclination: 82.5397°
perigee height: 603 km
apogee height: 634 km
right ascension of ascending node: 193.6027°
argument of perigee: 70.9952°
revolutions per day: 14.83468469
mean anomaly at epoch: 333.8837°
orbit number at epoch: 71471

The dashed part of the orbit path shows where the satellite is in the earth's shadow,  

DLR